Regional Weather Roundup
Issued by NWS

Home | Current Version | Previous Version | Text Only | Print | Product List | Glossary On
Versions: 1 2 3 4 5 6 7 8 9 10 11 12 13 14 15 16 17 18 19 20 21 22 23 24 25 26 27 28 29 30 31 32 33 34 35 36 37 38 39 40 41 42 43 44 45 46 47 48 49 50
000
ASUS44 KJAN 032210
RWRMS

MISSISSIPPI HOURLY WEATHER ROUNDUP
NATIONAL WEATHER SERVICE JACKSON MS
500 PM CDT SUN MAY 03 2015

NOTE: "FAIR: INDICATES FEW OR NO CLOUDS BELOW 12,000 FEET WITH NO
SIGNIFICANT WEATHER AND/OR OBSTRUCTIONS TO VISIBILITY.

MSZ001>002-007>008-010>013-018>021-025>028-034>036-032300-
NORTHWEST MISSISSIPPI

CITY           SKY/WX    TMP DP  RH WIND       PRES   REMARKS
CLARKSDALE     PTSUNNY   82  54  36 SE9       30.03F
CLEVELAND      FAIR      84  53  34 S13       30.02S
GREENWOOD      MOSUNNY   82  53  36 S6        30.04F
GREENVILLE     SUNNY     83  51  33 SW13      30.02F
OLIVE BRANCH   PTSUNNY   79  52  38 S8        30.05F
OXFORD         LGT RAIN  79  46  31 SE7       30.08S
TUNICA         PTCLDY    81  50  34 S8        30.03F
$$

MSZ003>006-009-014>017-022>024-029>033-037>039-032300-
NORTHEAST MISSISSIPPI

CITY           SKY/WX    TMP DP  RH WIND       PRES   REMARKS
COLUMBUS AFB   MOSUNNY   85  50  30 SW7       30.07F
CORINTH        FAIR      79  48  34 S7        30.07S
GOLDN TRIANGLE MOSUNNY   79  52  38 S9        30.07F
STARKVILLE     FAIR      81  52  36 S6        30.07S
TUPELO         MOSUNNY   81  50  33 S7        30.06F
$$

MSZ040-058-032300-
CENTRAL MISSISSIPPI

CITY           SKY/WX    TMP DP  RH WIND       PRES   REMARKS
JACKSON INTL   MOSUNNY   82  50  32 S12       30.06F
JACKSON HAWKNS SUNNY     82  53  36 SE9       30.06F
MERIDIAN KEY   MOSUNNY   80  48  32 S8        30.08F
MERIDIAN NAS   MOSUNNY   79  47  32 SW3       30.09S
RAYMOND        CLOUDY    82  77  83 CALM      30.05F HX  91
VICKSBURG      MOSUNNY   82  53  36 VRB5      30.05F
$$

MSZ059>079-032300-
SOUTH MISSISSIPPI

CITY           SKY/WX    TMP DP  RH WIND       PRES   REMARKS
BROOKHAVEN     FAIR      81  52  36 SE3       30.09S
HATTIESBURG    MOSUNNY   81  49  32 S5        30.08S
MCCOMB         CLOUDY    81  54  39 S7        30.07F
NATCHEZ        PTSUNNY   81  57  44 SW5       30.07F
PINE BELT      SUNNY     81  46  30 S9        30.09F
$$

MSZ080>082-032300-
COASTAL MISSISSIPPI

CITY           SKY/WX    TMP DP  RH WIND       PRES   REMARKS
BAY ST LOUIS   SUNNY     77  48  36 MISG      30.10F
BILOXI         SUNNY     77  57  50 S8        30.10F
PASCAGOULA     SUNNY     77  54  44 SE5       30.11S
GULFPORT       SUNNY     77  56  48 SE12      30.10F
$$


USA.gov is the U.S. government's official web portal to all federal, state and local government web resources and services.